N12SV KPVU-KSVR

Flight info

Callsign N12SV
Flight time 0h 12m
Altitude VFR
Route /N
Aircraft C402/L-DOV/C

Departure

Time 2026-05-04 20:35
Airport Provo Municipal Airport (KPVU)

Arrival

Time 2026-05-04 20:48
Airport South Valley Regional Airport (KSVR)
Time Latitude Longitude Altitude Speed Heading
2026-05-04 20:34 40.21818 -111.72178 4555 ft 90 kts 153°
2026-05-04 20:35 40.21268 -111.71694 4747 ft 98 kts 150°
2026-05-04 20:35 40.20678 -111.71234 4984 ft 104 kts 155°
2026-05-04 20:35 40.20230 -111.70498 5234 ft 112 kts 121°
2026-05-04 20:35 40.19930 -111.69520 5550 ft 118 kts 111°
2026-05-04 20:36 40.20145 -111.68548 5807 ft 119 kts 40°
2026-05-04 20:36 40.20878 -111.67862 5886 ft 139 kts 33°
2026-05-04 20:36 40.21828 -111.67505 5839 ft 151 kts 351°
2026-05-04 20:36 40.22805 -111.67984 5889 ft 152 kts 338°
2026-05-04 20:37 40.23795 -111.68521 5890 ft 156 kts 336°
2026-05-04 20:37 40.24807 -111.69090 5882 ft 161 kts 338°
2026-05-04 20:37 40.25846 -111.69681 5889 ft 165 kts 335°
2026-05-04 20:37 40.26768 -111.70518 5865 ft 159 kts 317°
2026-05-04 20:38 40.27618 -111.71443 5872 ft 159 kts 321°
2026-05-04 20:38 40.28485 -111.72354 5861 ft 161 kts 322°
2026-05-04 20:38 40.29352 -111.73291 5880 ft 161 kts 322°
2026-05-04 20:38 40.30223 -111.74196 5870 ft 163 kts 322°
2026-05-04 20:39 40.31106 -111.75124 5879 ft 163 kts 323°
2026-05-04 20:39 40.31990 -111.76070 5863 ft 164 kts 323°
2026-05-04 20:39 40.32869 -111.77016 5855 ft 163 kts 322°
2026-05-04 20:39 40.33787 -111.77866 5871 ft 160 kts 332°
2026-05-04 20:40 40.34749 -111.78592 5867 ft 162 kts 330°
2026-05-04 20:40 40.35738 -111.79321 5858 ft 164 kts 332°
2026-05-04 20:40 40.36598 -111.80300 5849 ft 167 kts 313°
2026-05-04 20:40 40.37327 -111.81506 5839 ft 172 kts 312°
2026-05-04 20:41 40.38077 -111.82769 5822 ft 176 kts 311°
2026-05-04 20:41 40.38818 -111.84051 5825 ft 177 kts 311°
2026-05-04 20:41 40.39572 -111.85314 5828 ft 177 kts 314°
2026-05-04 20:41 40.40416 -111.86494 5830 ft 179 kts 317°
2026-05-04 20:42 40.41281 -111.87673 5812 ft 178 kts 317°
2026-05-04 20:42 40.42133 -111.88843 5817 ft 176 kts 317°
2026-05-04 20:42 40.42989 -111.89995 5818 ft 176 kts 319°
2026-05-04 20:42 40.43583 -111.90753 5818 ft 176 kts 319°
2026-05-04 20:43 40.44456 -111.91855 5817 ft 175 kts 320°
2026-05-04 20:43 40.45322 -111.92948 5818 ft 171 kts 320°
2026-05-04 20:43 40.46167 -111.94043 5827 ft 171 kts 321°
2026-05-04 20:43 40.47078 -111.95045 5849 ft 172 kts 332°
2026-05-04 20:44 40.48094 -111.95843 5845 ft 168 kts 337°
2026-05-04 20:44 40.49150 -111.96501 5849 ft 169 kts 337°
2026-05-04 20:44 40.50254 -111.96997 5888 ft 169 kts
2026-05-04 20:44 40.51439 -111.96985 5854 ft 171 kts
2026-05-04 20:45 40.52613 -111.96907 5947 ft 165 kts
2026-05-04 20:45 40.53702 -111.97194 5859 ft 161 kts 339°
2026-05-04 20:45 40.54712 -111.97722 5837 ft 155 kts 345°
2026-05-04 20:45 40.55731 -111.97982 5808 ft 144 kts 352°
2026-05-04 20:46 40.56728 -111.98160 5416 ft 158 kts 355°
2026-05-04 20:46 40.57637 -111.98357 5879 ft 85 kts 342°
2026-05-04 20:46 40.58347 -111.98602 5514 ft 122 kts 350°
2026-05-04 20:46 40.59214 -111.98767 5277 ft 125 kts 354°
2026-05-04 20:47 40.59993 -111.98922 4965 ft 110 kts 341°
2026-05-04 20:47 40.60695 -111.99043 4815 ft 93 kts 344°
2026-05-04 20:47 40.61323 -111.99172 4630 ft 82 kts 342°
2026-05-04 20:47 40.61775 -111.99269 4608 ft 51 kts 355°
2026-05-04 20:48 40.62031 -111.99295 4610 ft 17 kts 352°
2026-05-04 20:48 40.62106 -111.99364 4610 ft 12 kts 261°
2026-05-04 20:48 40.62097 -111.99464 4611 ft 13 kts 263°